FW0960 Weather Reports


time (UTC)temp
C
wind
direction
speed
KPH
gust
KPH
rain 1hr
cm
rain 24hr
cm
rain mn
cm
humidity
%
barometer
mb
20260502180503 13 188 1.6 9.7 0.00 0.00 0.00 74 1013.1
20260502170452 12 215 1.6 6.4 0.00 0.00 0.00 74 1012.9
20260502163444 11 225 1.6 4.8 0.00 0.00 0.00 76 1013.5
20260502162943 11 199 1.6 4.8 0.00 0.00 0.00 78 1013.3
20260502162446 11 196 1.6 4.8 0.00 0.00 0.00 80 1013.5
20260502161943 11 194 1.6 6.4 0.00 0.00 0.00 81 1013.4
20260502160943 11 205 1.6 6.4 0.00 0.00 0.00 80 1013.5
20260502160441 10 217 1.6 6.4 0.00 0.00 0.00 82 1013.6
20260502151940 11 208 1.6 4.8 0.00 0.00 0.00 74 1013.7
20260502151436 11 190 1.6 4.8 0.00 0.00 0.00 74 1013.7
20260502150441 11 192 1.6 4.8 0.00 0.00 0.00 75 1013.7
20260502130434 11 205 1.6 14.5 0.00 0.00 0.00 80 1013.8
20260502122926 11 207 1.6 4.8 0.00 0.00 0.00 83 1013.7
20260502122434 11 184 1.6 3.2 0.00 0.00 0.00 85 1013.7
20260502121922 11 170 0.0 3.2 0.00 0.00 0.00 86 1013.6
20260502121421 11 104 0.0 0.0 0.00 0.00 0.00 86 1013.7
20260502120418 10 90 0.0 0.0 0.00 0.00 0.00 88 1013.9
20260502115918 10 90 0.0 0.0 0.00 0.00 0.00 88 1014.0
20260502115415 10 90 0.0 0.0 0.00 0.00 0.00 88 1014.0
20260502114920 10 90 0.0 0.0 0.00 0.00 0.00 89 1013.9
20260502113907 10 90 0.0 0.0 0.00 0.00 0.00 89 1013.7
20260502113411 10 79 0.0 0.0 0.00 0.00 0.00 89 1013.7
20260502112901 10 79 0.0 0.0 0.00 0.00 0.00 89 1013.8
20260502112409 10 79 0.0 0.0 0.00 0.00 0.00 89 1013.8
20260502111353 10 79 0.0 0.0 0.00 0.00 0.00 90 1013.6
20260502110851 10 79 0.0 0.0 0.00 0.00 0.00 90 1013.6
20260502105832 9 79 0.0 0.0 0.00 0.00 0.00 91 1013.4
20260502105330 9 79 0.0 0.0 0.00 0.00 0.00 91 1013.4
20260502104316 9 79 0.0 0.0 0.00 0.00 0.00 91 1013.3
20260502103813 9 79 0.0 0.0 0.00 0.00 0.00 90 1013.3
20260502103311 9 79 0.0 0.0 0.00 0.00 0.00 90 1013.4
20260502102811 9 79 0.0 0.0 0.00 0.00 0.00 90 1013.2
20260502101803 9 79 0.0 0.0 0.00 0.00 0.00 90 1013.1
20260502100802 9 79 0.0 0.0 0.00 0.00 0.00 90 1013.0
20260502100303 9 79 0.0 0.0 0.00 0.00 0.00 90 1013.1
20260502091307 9 79 0.0 0.0 0.00 0.00 0.00 88 1012.7
20260502090807 9 79 0.0 0.0 0.00 0.00 0.00 88 1012.8
20260502071209 10 79 0.0 0.0 0.00 0.00 0.00 84 1012.9
20260502070706 10 79 0.0 0.0 0.00 0.00 0.00 85 1013.0
20260502070202 10 79 0.0 0.0 0.00 0.00 0.00 84 1013.0
20260502065706 11 79 0.0 0.0 0.00 0.00 0.00 84 1012.8
20260502065205 11 79 0.0 0.0 0.00 0.00 0.00 84 1012.8
20260502064152 11 79 0.0 0.0 0.00 0.00 0.00 84 1013.0
20260502063647 11 79 0.0 0.0 0.00 0.00 0.00 85 1013.2
20260502063148 11 79 0.0 0.0 0.00 0.00 0.00 85 1013.2
20260502062648 11 79 0.0 0.0 0.00 0.00 0.00 85 1013.2
20260502062139 11 79 0.0 0.0 0.00 0.00 0.00 85 1013.3
20260502061639 11 79 0.0 0.0 0.00 0.00 0.00 85 1013.2
20260502060642 11 79 0.0 0.0 0.00 0.00 0.00 86 1013.4
20260502060138 11 79 0.0 0.0 0.00 0.00 0.00 86 1013.4
20260502055638 11 79 0.0 0.0 0.00 0.00 0.00 86 1013.5
20260502055134 11 79 0.0 0.0 0.00 0.00 0.00 86 1013.6
20260502054138 11 79 0.0 0.0 0.00 0.00 0.00 85 1013.8
20260502053639 11 79 0.0 0.0 0.00 0.00 0.00 85 1013.8
20260502053137 11 79 0.0 0.0 0.00 0.00 0.00 85 1013.8
20260502052639 11 79 0.0 0.0 0.00 0.00 0.00 85 1013.9
20260502052139 11 79 0.0 0.0 0.00 0.00 0.00 84 1014.0
20260502051130 11 79 0.0 0.0 0.00 0.00 0.00 83 1014.0
20260502050132 11 79 0.0 0.0 0.00 0.00 0.00 82 1014.1
20260502045630 11 79 0.0 0.0 0.00 0.00 0.00 82 1014.1
20260502045132 11 79 0.0 0.0 0.00 0.00 0.00 81 1014.1
20260502044632 11 79 0.0 0.0 0.00 0.00 0.00 82 1014.0
20260502044132 11 79 0.0 0.0 0.00 0.00 0.00 82 1014.1
20260502043628 11 79 0.0 0.0 0.00 0.00 0.00 82 1014.1
20260502043130 11 79 0.0 0.0 0.00 0.00 0.00 82 1014.1
20260502042632 11 79 0.0 0.0 0.00 0.00 0.00 82 1014.1
20260502042131 11 79 0.0 0.0 0.00 0.00 0.00 82 1014.0
20260502041628 11 79 0.0 0.0 0.00 0.00 0.00 83 1014.1
20260502041129 11 79 0.0 0.0 0.00 0.00 0.00 83 1013.9
20260502040632 11 79 0.0 0.0 0.00 0.00 0.00 83 1014.0
20260502040143 11 79 0.0 0.0 0.00 0.00 0.00 83 1014.0
20260502035132 11 79 0.0 0.0 0.00 0.00 0.00 83 1014.1
20260502034629 11 79 0.0 0.0 0.00 0.00 0.00 83 1013.9
20260502034140 11 79 0.0 0.0 0.00 0.00 0.00 83 1014.0
20260502033627 11 79 0.0 0.0 0.00 0.00 0.00 83 1013.8
20260502033123 11 79 0.0 0.0 0.00 0.00 0.00 83 1013.7
20260502032624 11 79 0.0 0.0 0.00 0.00 0.00 83 1013.8
20260502031624 11 79 0.0 0.0 0.00 0.00 0.00 84 1013.6
20260502031122 11 79 0.0 0.0 0.00 0.00 0.00 85 1013.8
20260502030616 11 79 0.0 0.0 0.00 0.00 0.00 85 1013.7
20260502030125 11 79 0.0 0.0 0.00 0.00 0.00 85 1013.8
20260502025152 11 79 0.0 0.0 0.00 0.00 0.00 85 1013.9
20260502024106 11 79 0.0 0.0 0.00 0.00 0.00 85 1014.1
20260502023606 11 79 0.0 0.0 0.00 0.00 0.00 85 1014.1
20260502023106 11 79 0.0 0.0 0.00 0.00 0.00 85 1014.3
20260502022603 11 79 0.0 0.0 0.00 0.00 0.00 85 1014.2
20260502021603 11 79 0.0 0.0 0.00 0.00 0.00 85 1014.4
20260502021104 11 79 0.0 0.0 0.00 0.00 0.00 84 1014.5
20260502020601 11 79 0.0 0.0 0.00 0.00 0.00 84 1014.5
20260502015602 11 79 0.0 0.0 0.00 0.00 0.00 84 1014.4
20260502015102 11 79 0.0 0.0 0.00 0.00 0.00 83 1014.3
20260502014603 11 79 0.0 0.0 0.00 0.00 0.00 83 1014.4
20260502014109 11 79 0.0 0.0 0.00 0.00 0.00 83 1014.4
20260502013102 12 79 0.0 0.0 0.00 0.00 0.00 81 1014.1
20260502012605 12 79 0.0 0.0 0.00 0.00 0.00 81 1014.0
20260502012106 12 79 0.0 0.0 0.00 0.00 0.00 80 1014.1
20260502011604 12 79 0.0 0.0 0.00 0.00 0.00 80 1014.0
20260502011103 12 79 0.0 0.0 0.00 0.00 0.00 80 1014.1
20260502005608 12 79 0.0 0.0 0.00 0.00 0.00 78 1014.1
20260502005102 12 79 0.0 0.0 0.00 0.00 0.00 77 1014.0
20260502004603 12 79 0.0 0.0 0.00 0.00 0.00 76 1014.0
20260502004105 12 79 0.0 0.0 0.00 0.00 0.00 76 1013.9
20260502003605 12 79 0.0 0.0 0.00 0.00 0.00 75 1013.8
20260502003105 13 79 0.0 0.0 0.00 0.00 0.00 75 1013.7
20260502002604 13 78 0.0 1.6 0.00 0.00 0.00 74 1013.7
20260502002101 13 78 0.0 1.6 0.00 0.00 0.00 74 1013.4
20260502001552 13 78 0.0 1.6 0.00 0.00 0.00 73 1013.3
20260502001049 13 86 0.0 1.6 0.00 0.00 0.00 73 1013.2
20260502000540 13 86 0.0 1.6 0.00 0.00 0.00 73 1013.2
20260502000044 13 86 0.0 1.6 0.00 0.00 0.00 72 1012.9
20260501235542 13 86 0.0 1.6 0.00 0.00 0.00 71 1013.1
20260501235042 14 86 0.0 1.6 0.00 0.00 0.00 71 1013.1
20260501234538 14 86 0.0 1.6 0.00 0.00 0.00 71 1013.0
20260501234038 14 86 0.0 1.6 0.00 0.00 0.00 70 1013.1
20260501232036 15 86 0.0 1.6 0.00 0.00 0.00 73 1012.9
20260501231532 15 86 0.0 3.2 0.00 0.00 0.00 72 1012.6
20260501231033 15 86 0.0 3.2 0.00 0.00 0.00 71 1012.7
20260501230531 15 87 0.0 3.2 0.00 0.00 0.00 68 1012.7
20260501230034 15 87 0.0 3.2 0.00 0.00 0.00 66 1012.8
20260501225533 15 90 0.0 3.2 0.00 0.00 0.00 67 1012.7
20260501225032 15 95 1.6 3.2 0.00 0.00 0.00 66 1012.7
20260501224533 15 344 1.6 3.2 0.00 0.00 0.00 67 1012.7
20260501224036 15 344 1.6 3.2 0.00 0.00 0.00 68 1012.7
20260501223539 15 344 0.0 3.2 0.00 0.00 0.00 69 1012.7
20260501223027 15 344 0.0 3.2 0.00 0.00 0.00 69 1012.7
20260501222534 15 344 1.6 3.2 0.00 0.00 0.00 67 1012.7
20260501222025 15 344 1.6 3.2 0.00 0.00 0.00 68 1012.9
20260501221527 15 344 0.0 3.2 0.00 0.00 0.00 69 1012.8
20260501221026 15 344 0.0 3.2 0.00 0.00 0.00 70 1012.8
20260501220523 15 344 1.6 3.2 0.00 0.00 0.00 69 1013.0
20260501220023 15 344 1.6 3.2 0.00 0.00 0.00 68 1013.1
20260501215525 15 342 0.0 3.2 0.00 0.00 0.00 68 1013.1
20260501214521 16 338 1.6 3.2 0.00 0.00 0.00 66 1013.1
20260501213517 16 355 1.6 4.8 0.00 0.00 0.00 67 1013.0
20260501213019 16 355 1.6 4.8 0.00 0.00 0.00 67 1013.0
20260501212516 16 355 1.6 4.8 0.00 0.00 0.00 66 1013.1
20260501212014 16 355 1.6 3.2 0.00 0.00 0.00 66 1013.1
20260501211513 16 355 1.6 3.2 0.00 0.00 0.00 65 1013.0
20260501211015 15 351 1.6 4.8 0.00 0.00 0.00 66 1013.1
20260501210519 15 351 1.6 4.8 0.00 0.00 0.00 68 1013.2
20260501210013 15 351 1.6 4.8 0.00 0.00 0.00 68 1013.2
20260501205513 15 348 1.6 4.8 0.00 0.00 0.00 70 1013.3
20260501205018 15 351 1.6 4.8 0.00 0.00 0.00 68 1013.5
20260501204012 15 350 1.6 3.2 0.00 0.00 0.00 68 1013.4
20260501203511 15 351 1.6 3.2 0.00 0.00 0.00 67 1013.4
20260501203013 15 350 1.6 3.2 0.00 0.00 0.00 66 1013.3
20260501202005 15 348 1.6 3.2 0.00 0.00 0.00 65 1013.4
20260501201507 15 346 1.6 3.2 0.00 0.00 0.00 63 1013.4
20260501200508 16 338 1.6 4.8 0.00 0.00 0.00 66 1013.4
20260501200020 16 337 1.6 4.8 0.00 0.00 0.00 65 1013.5
20260501195008 16 323 0.0 3.2 0.00 0.00 0.00 60 1013.6
20260501194507 16 315 1.6 3.2 0.00 0.00 0.00 64 1013.6
20260501194011 16 306 1.6 3.2 0.00 0.00 0.00 62 1013.8
20260501193511 16 296 1.6 3.2 0.00 0.00 0.00 63 1013.7
20260501192509 16 341 1.6 3.2 0.00 0.00 0.00 64 1014.0
20260501192004 16 338 1.6 3.2 0.00 0.00 0.00 64 1014.0
20260501191505 16 336 1.6 3.2 0.00 0.00 0.00 64 1014.0
20260501191008 15 334 1.6 3.2 0.00 0.00 0.00 64 1014.1
20260501190504 16 333 1.6 3.2 0.00 0.00 0.00 60 1014.2
20260501185505 16 344 1.6 4.8 0.00 0.00 0.00 62 1014.1
20260501185038 16 345 1.6 3.2 0.00 0.00 0.00 59 1014.1
20260501184027 15 343 1.6 3.2 0.00 0.00 0.00 62 1014.5
20260501183004 16 340 1.6 3.2 0.00 0.00 0.00 61 1014.4
20260501182506 16 337 1.6 3.2 0.00 0.00 0.00 56 1014.5
20260501182008 16 339 1.6 3.2 0.00 0.00 0.00 59 1014.4
20260501181503 16 336 1.6 3.2 0.00 0.00 0.00 59 1014.4
20260501181005 16 332 1.6 3.2 0.00 0.00 0.00 58 1014.5